Weather History for Fayetteville, AR

Change the Weather History Date:

Friday, January 18, 2013

  Actual Average Record
Temperature  
Mean Temperature 37 °F 36 °F  
Max Temperature 56 °F 46 °F 70 °F (1951)
Min Temperature 18 °F 25 °F -5 °F (1984)
Degree Days  
Heating Degree Days 28 30  
Month to date heating degree days 532 540  
Since 1 July heating degree days 2050 2223  
Moisture  
Dew Point 23 °F    
Average Humidity 60    
Maximum Humidity 92    
Minimum Humidity 27    
Precipitation  
Precipitation 0.00 in 0.10 in 0.75 in (1949)
Month to date precipitation 0.34 1.69  
Year to date precipitation 0.34 1.69  
Sea Level Pressure  
Sea Level Pressure 30.40 in    
Wind  
Wind Speed 8 mph (SSW)    
Max Wind Speed 18 mph    
Max Gust Speed 23 mph    
Visibility 10 miles    
Events      
T = Trace of Precipitation, MM = Missing Value Source: NWS Daily Summary

Daily Weather History Graph

Daily Weather History Graph

Search for Another Location

Airport:

Trip Planner

Search our weather history database for the weather conditions in past years. The results will help you decide how hot, cold, wet, or windy it might be!

Date:

Astronomy

Jan. 18, 2013 Rise Set
Actual Time 7:25 AM CST 5:29 PM CST
Civil Twilight 6:57 AM CST 5:57 PM CST
Nautical Twilight 6:26 AM CST 6:28 PM CST
Astronomical Twilight 5:55 AM CST 6:59 PM CST
Moon 11:19 AM CST (1/18) 12:05 AM CST (1/18)
Length of Visible Light 10h 59m
Length of Day
10h 03m
Waxing Crescent, 47% of the Moon is Illuminated
Jan 18
Waxing Crescent
Jan 18
First Quarter
Jan 26
Full
Feb 3
Last Quarter
Feb 10
New

Hourly Weather History & Observations

Time (CST) Temp. Windchill Dew Point Humidity Pressure Visibility Wind Dir Wind Speed Gust Speed Precip Events Conditions
12:53 AM 24.1 °F - 21.9 °F 91% 30.53 in 10.0 mi Calm Calm - N/A   Clear
1:53 AM 21.0 °F - 19.0 °F 92% 30.54 in 10.0 mi Calm Calm - N/A   Clear
2:53 AM 21.0 °F - 19.0 °F 92% 30.54 in 10.0 mi Calm Calm - N/A   Clear
3:53 AM 19.9 °F - 18.0 °F 92% 30.52 in 10.0 mi Calm Calm - N/A   Clear
4:53 AM 19.9 °F - 18.0 °F 92% 30.51 in 10.0 mi Calm Calm - N/A   Clear
5:53 AM 19.0 °F - 16.0 °F 88% 30.51 in 10.0 mi Calm Calm - N/A   Clear
6:53 AM 18.0 °F - 16.0 °F 92% 30.50 in 10.0 mi Calm Calm - N/A   Clear
7:53 AM 19.0 °F - 17.1 °F 92% 30.49 in 10.0 mi Calm Calm - N/A   Clear
8:53 AM 28.0 °F - 25.0 °F 88% 30.49 in 10.0 mi Calm Calm - N/A   Clear
9:53 AM 44.1 °F 37.7 °F 28.0 °F 53% 30.48 in 10.0 mi South 12.7 mph - N/A   Clear
10:53 AM 48.9 °F - 28.0 °F 44% 30.46 in 10.0 mi South 11.5 mph - N/A   Clear
11:53 AM 51.1 °F - 27.0 °F 39% 30.43 in 10.0 mi SSW 13.8 mph - N/A   Clear
12:53 PM 54.0 °F - 27.0 °F 35% 30.38 in 10.0 mi SSW 12.7 mph 19.6 mph N/A   Clear
1:53 PM 55.0 °F - 24.1 °F 30% 30.35 in 10.0 mi South 15.0 mph - N/A   Clear
2:53 PM 55.0 °F - 23.0 °F 29% 30.34 in 10.0 mi SSW 12.7 mph 20.7 mph N/A   Clear
3:53 PM 53.1 °F - 25.0 °F 34% 30.32 in 10.0 mi SSW 16.1 mph 23.0 mph N/A   Clear
4:53 PM 50.0 °F - 26.1 °F 39% 30.32 in 10.0 mi South 12.7 mph - N/A   Clear
5:53 PM 46.9 °F - 28.0 °F 48% 30.31 in 10.0 mi SSW 9.2 mph - N/A   Clear
6:53 PM 45.0 °F 40.1 °F 28.0 °F 52% 30.30 in 10.0 mi South 9.2 mph - N/A   Clear
7:53 PM 45.0 °F 39.7 °F 28.0 °F 52% 30.29 in 10.0 mi SSW 10.4 mph - N/A   Clear
8:53 PM 45.0 °F 38.2 °F 25.0 °F 46% 30.27 in 10.0 mi SSW 15.0 mph 21.9 mph N/A   Clear
9:53 PM 45.0 °F 38.5 °F 24.1 °F 44% 30.26 in 10.0 mi SSW 13.8 mph - N/A   Clear
10:53 PM 43.0 °F 37.2 °F 24.1 °F 47% 30.24 in 10.0 mi SSW 10.4 mph - N/A   Clear
11:53 PM 42.8 °F 36.6 °F 23.0 °F 46% 30.22 in 10.0 mi SSW 11.5 mph - N/A   Clear